BAW469 LEPA-EGLL

Flight info

Callsign BAW469
Flight time N/A
Altitude 36000
Route MEROS5A MEROS DCT LAPIT DCT CHELY DCT LUMAS DCT SOFFY DCT MRM DCT MTL DCT ETREK DCT MADOT DCT MOPEM DCT CACHI DCT AVLON DCT OKRIX DCT BRY DCT CLM DCT KOPOR DCT ABNUR DCT DIMAL DCT ALESO ALESO1H
Aircraft A20N/M-SDE2E3FGHIRWXY/LB1

Departure

Time 2026-05-04 12:41
Airport Palma de Mallorca Airport (LEPA)

Arrival

Time N/A
Airport London Heathrow Airport (EGLL)
Time Latitude Longitude Altitude Speed Heading
2026-05-04 11:52 39.55134 2.72970 38 ft 0 kts 162°
2026-05-04 12:31 39.55147 2.72964 36 ft 4 kts 161°
2026-05-04 12:32 39.55172 2.72952 35 ft 4 kts 150°
2026-05-04 12:32 39.55187 2.72899 38 ft 4 kts 62°
2026-05-04 12:32 39.55172 2.72872 34 ft 4 kts 56°
2026-05-04 12:33 39.55169 2.72867 35 ft 1 kts 59°
2026-05-04 12:36 39.55180 2.72890 34 ft 6 kts 59°
2026-05-04 12:36 39.55214 2.72965 38 ft 14 kts 59°
2026-05-04 12:36 39.55280 2.73041 38 ft 13 kts 348°
2026-05-04 12:37 39.55367 2.72975 38 ft 16 kts 329°
2026-05-04 12:37 39.55436 2.73038 38 ft 14 kts 57°
2026-05-04 12:37 39.55492 2.73156 38 ft 17 kts 58°
2026-05-04 12:37 39.55559 2.73297 38 ft 20 kts 58°
2026-05-04 12:38 39.55635 2.73459 36 ft 22 kts 59°
2026-05-04 12:38 39.55720 2.73640 38 ft 25 kts 58°
2026-05-04 12:38 39.55812 2.73834 38 ft 26 kts 58°
2026-05-04 12:38 39.55911 2.74036 38 ft 25 kts 59°
2026-05-04 12:39 39.55984 2.74201 37 ft 21 kts 58°
2026-05-04 12:39 39.56067 2.74372 38 ft 24 kts 58°
2026-05-04 12:39 39.56152 2.74454 38 ft 11 kts
2026-05-04 12:39 39.56220 2.74420 38 ft 12 kts 315°
2026-05-04 12:40 39.56251 2.74326 38 ft 12 kts 259°
2026-05-04 12:40 39.56218 2.74247 38 ft 7 kts 236°
2026-05-04 12:40 39.56176 2.74161 38 ft 25 kts 238°
2026-05-04 12:40 39.55959 2.73712 38 ft 90 kts 239°
2026-05-04 12:41 39.55542 2.72815 38 ft 139 kts 238°
2026-05-04 12:41 39.54999 2.71699 446 ft 147 kts 237°
2026-05-04 12:41 39.54415 2.70531 950 ft 163 kts 236°
2026-05-04 12:41 39.53745 2.69250 1485 ft 176 kts 234°
2026-05-04 12:42 39.53046 2.67963 2277 ft 175 kts 234°
2026-05-04 12:42 39.52332 2.66577 2717 ft 195 kts 236°
2026-05-04 12:42 39.51572 2.65014 3211 ft 211 kts 237°
2026-05-04 12:42 39.50811 2.63441 4192 ft 207 kts 236°
2026-05-04 12:43 39.50037 2.61871 5176 ft 207 kts 236°
2026-05-04 12:43 39.49065 2.60422 5786 ft 224 kts 218°
2026-05-04 12:43 39.47673 2.59321 6220 ft 247 kts 208°
2026-05-04 12:43 39.46084 2.58301 6862 ft 258 kts 207°
2026-05-04 12:44 39.44479 2.57260 7824 ft 259 kts 208°
2026-05-04 12:44 39.42842 2.56279 8732 ft 264 kts 197°
2026-05-04 12:44 39.40986 2.56201 9597 ft 275 kts 171°
2026-05-04 12:44 39.39222 2.57259 10352 ft 291 kts 147°
2026-05-04 12:45 39.37764 2.59258 10668 ft 321 kts 131°
2026-05-04 12:45 39.36383 2.61674 10940 ft 343 kts 131°
2026-05-04 12:45 39.34868 2.64097 11617 ft 349 kts 134°
2026-05-04 12:45 39.33232 2.66428 12394 ft 352 kts 137°
2026-05-04 12:46 39.31503 2.68695 13193 ft 357 kts 139°
2026-05-04 12:46 39.29707 2.70947 13922 ft 362 kts 140°
2026-05-04 12:46 39.27875 2.73221 14565 ft 369 kts 138°
2026-05-04 12:46 39.26398 2.75989 15170 ft 384 kts 117°
2026-05-04 12:47 39.25702 2.79358 15766 ft 396 kts 98°
2026-05-04 12:47 39.25547 2.82937 16366 ft 404 kts 93°
2026-05-04 12:47 39.25597 2.86598 16957 ft 412 kts 83°
2026-05-04 12:47 39.26355 2.90185 17536 ft 419 kts 65°
2026-05-04 12:48 39.27829 2.93444 18118 ft 422 kts 52°
2026-05-04 12:48 39.29531 2.96568 18669 ft 427 kts 54°
2026-05-04 12:48 39.31143 2.99764 19198 ft 432 kts 56°
2026-05-04 12:48 39.32714 3.03102 19750 ft 437 kts 58°
2026-05-04 12:49 39.34256 3.06509 20271 ft 442 kts 59°
2026-05-04 12:49 39.35795 3.09970 20800 ft 446 kts 59°
2026-05-04 12:49 39.37349 3.13481 21319 ft 451 kts 59°
2026-05-04 12:49 39.38916 3.17017 21848 ft 456 kts 60°
2026-05-04 12:50 39.40502 3.20589 22367 ft 460 kts 60°
2026-05-04 12:50 39.42104 3.24192 22868 ft 465 kts 60°
2026-05-04 12:50 39.43735 3.27840 23393 ft 469 kts 59°
2026-05-04 12:50 39.45408 3.31485 23831 ft 473 kts 59°
2026-05-04 12:51 39.47107 3.35152 24298 ft 475 kts 59°
2026-05-04 12:51 39.48789 3.38787 24738 ft 478 kts 59°
2026-05-04 12:51 39.50500 3.42497 25157 ft 481 kts 59°
2026-05-04 12:51 39.52216 3.46232 25601 ft 484 kts 59°
2026-05-04 12:52 39.53941 3.49995 26014 ft 487 kts 59°
2026-05-04 12:52 39.55676 3.53786 26419 ft 490 kts 59°
2026-05-04 12:52 39.57419 3.57600 26814 ft 493 kts 59°
2026-05-04 12:52 39.59169 3.61435 27193 ft 496 kts 59°
2026-05-04 12:53 39.60937 3.65311 27565 ft 500 kts 59°
2026-05-04 12:53 39.62709 3.69204 27933 ft 503 kts 59°
2026-05-04 12:53 39.64493 3.73125 28284 ft 506 kts 60°
2026-05-04 12:53 39.66285 3.77069 28624 ft 508 kts 60°
2026-05-04 12:54 39.68089 3.81045 28955 ft 511 kts 60°
2026-05-04 12:54 39.69895 3.85032 29270 ft 514 kts 60°
2026-05-04 12:54 39.71100 3.87694 29482 ft 516 kts 60°
2026-05-04 12:54 39.72924 3.91726 29798 ft 518 kts 60°
2026-05-04 12:55 39.74751 3.95772 30101 ft 521 kts 60°
2026-05-04 12:55 39.76589 3.99848 30384 ft 523 kts 60°
2026-05-04 12:55 39.78432 4.03939 30678 ft 525 kts 60°
2026-05-04 12:55 39.80882 4.09385 31060 ft 528 kts 60°
2026-05-04 12:56 39.82132 4.12169 31296 ft 528 kts 60°
2026-05-04 12:56 39.84107 4.16199 31659 ft 527 kts 52°
2026-05-04 12:56 39.86567 4.19716 32013 ft 525 kts 39°
2026-05-04 12:56 39.89425 4.22540 32350 ft 520 kts 27°
2026-05-04 12:57 39.92636 4.24637 32675 ft 513 kts 15°
2026-05-04 12:57 39.96036 4.25891 33007 ft 502 kts
2026-05-04 12:57 39.99476 4.26303 33356 ft 493 kts 354°
2026-05-04 12:57 40.02897 4.26408 33679 ft 493 kts 355°
2026-05-04 12:58 40.06335 4.26697 34023 ft 496 kts 359°
2026-05-04 12:58 40.09765 4.27228 34333 ft 497 kts
2026-05-04 12:58 40.13185 4.27924 34637 ft 497 kts
2026-05-04 12:58 40.16591 4.28700 34932 ft 497 kts
2026-05-04 12:59 40.19993 4.29507 35210 ft 496 kts
2026-05-04 12:59 40.23384 4.30318 35479 ft 495 kts
2026-05-04 12:59 40.26771 4.31127 35737 ft 494 kts
2026-05-04 12:59 40.30150 4.31931 35911 ft 494 kts
2026-05-04 13:00 40.33528 4.32733 35972 ft 493 kts
2026-05-04 13:00 40.40275 4.34335 35975 ft 492 kts
2026-05-04 13:01 40.46972 4.35928 35974 ft 493 kts
2026-05-04 13:01 40.53712 4.37535 35974 ft 493 kts
2026-05-04 13:02 40.60468 4.39149 35975 ft 493 kts
2026-05-04 13:02 40.67232 4.40769 35978 ft 494 kts
2026-05-04 13:03 40.74012 4.42396 35976 ft 495 kts
2026-05-04 13:03 40.80784 4.44026 35974 ft 493 kts
2026-05-04 13:04 40.87549 4.45655 35975 ft 494 kts
2026-05-04 13:04 40.94312 4.47290 35972 ft 494 kts
2026-05-04 13:05 41.01082 4.48934 35973 ft 494 kts
2026-05-04 13:05 41.07807 4.50569 35968 ft 494 kts
2026-05-04 13:06 41.14574 4.52217 35979 ft 494 kts
2026-05-04 13:06 41.21343 4.53868 35976 ft 494 kts
2026-05-04 13:07 41.28118 4.55524 35967 ft 494 kts
2026-05-04 13:07 41.34882 4.57181 35970 ft 494 kts
2026-05-04 13:08 41.41642 4.58840 35978 ft 494 kts
2026-05-04 13:08 41.48350 4.60490 35973 ft 493 kts
2026-05-04 13:09 41.55106 4.62156 35981 ft 493 kts
2026-05-04 13:09 41.61853 4.63822 35976 ft 493 kts
2026-05-04 13:10 41.68596 4.65491 35978 ft 492 kts
2026-05-04 13:10 41.75312 4.67430 35975 ft 498 kts 11°
2026-05-04 13:11 41.81949 4.70058 35976 ft 497 kts 10°
2026-05-04 13:11 41.88588 4.72649 35972 ft 497 kts 10°
2026-05-04 13:12 41.95221 4.75252 35971 ft 496 kts 10°
2026-05-04 13:12 42.01845 4.77861 35977 ft 496 kts 10°
2026-05-04 13:13 42.08421 4.80458 35973 ft 496 kts 10°
2026-05-04 13:13 42.15052 4.83082 35981 ft 498 kts 10°
2026-05-04 13:14 42.21681 4.85712 35979 ft 495 kts 10°
2026-05-04 13:14 42.28300 4.88343 35983 ft 495 kts 10°
2026-05-04 13:15 42.34918 4.90979 35984 ft 495 kts 10°
2026-05-04 13:15 42.41530 4.93618 35982 ft 495 kts 10°
2026-05-04 13:16 42.48139 4.96262 35990 ft 495 kts 10°
2026-05-04 13:16 42.54744 4.98911 35991 ft 495 kts 10°
2026-05-04 13:17 42.61308 5.01548 35988 ft 495 kts 11°
2026-05-04 13:17 42.67879 5.04195 35999 ft 494 kts 11°
2026-05-04 13:18 42.74506 5.06869 36004 ft 495 kts 11°
2026-05-04 13:18 42.81108 5.09540 35990 ft 492 kts 11°
2026-05-04 13:19 42.87680 5.12204 35999 ft 493 kts 11°
2026-05-04 13:19 42.94257 5.14877 35998 ft 493 kts 11°
2026-05-04 13:20 43.00837 5.17557 36005 ft 493 kts 11°
2026-05-04 13:20 43.07417 5.20237 36001 ft 493 kts 11°
2026-05-04 13:21 43.13960 5.22900 36013 ft 494 kts 11°
2026-05-04 13:21 43.20588 5.25608 36020 ft 493 kts 11°
2026-05-04 13:22 43.27159 5.28298 36024 ft 493 kts 11°
2026-05-04 13:22 43.33699 5.30884 36026 ft 488 kts
2026-05-04 13:22 43.37032 5.31402 36023 ft 478 kts 353°
2026-05-04 13:23 43.40314 5.31101 36026 ft 467 kts 343°
2026-05-04 13:23 43.46453 5.28654 36019 ft 458 kts 334°
2026-05-04 13:24 43.52507 5.25897 36022 ft 458 kts 334°
2026-05-04 13:24 43.58566 5.23136 36020 ft 458 kts 334°
2026-05-04 13:25 43.67601 5.18995 36011 ft 458 kts 334°
2026-05-04 13:25 43.73645 5.16215 36003 ft 457 kts 334°
2026-05-04 13:26 43.79690 5.13430 36000 ft 458 kts 334°
2026-05-04 13:26 43.85743 5.10634 36004 ft 458 kts 334°
2026-05-04 13:27 43.91792 5.07835 36005 ft 458 kts 334°
2026-05-04 13:27 43.97805 5.05046 36011 ft 459 kts 334°
2026-05-04 13:28 44.03860 5.02231 36015 ft 459 kts 334°
2026-05-04 13:28 44.09934 4.99402 36021 ft 460 kts 334°
2026-05-04 13:29 44.16005 4.96568 36021 ft 460 kts 334°
2026-05-04 13:29 44.22078 4.93727 36027 ft 460 kts 334°
2026-05-04 13:30 44.28152 4.90879 36031 ft 461 kts 334°
2026-05-04 13:30 44.34228 4.88025 36031 ft 461 kts 334°
2026-05-04 13:31 44.40308 4.85163 36023 ft 461 kts 334°
2026-05-04 13:31 44.46384 4.82296 36030 ft 461 kts 334°
2026-05-04 13:32 44.52468 4.79419 36025 ft 461 kts 335°
2026-05-04 13:32 44.58755 4.77262 36025 ft 471 kts 346°
2026-05-04 13:33 44.65221 4.75856 36027 ft 470 kts 345°
2026-05-04 13:33 44.71685 4.74409 36031 ft 470 kts 345°
2026-05-04 13:34 44.78151 4.72968 36031 ft 471 kts 345°
2026-05-04 13:34 44.84628 4.71526 36036 ft 471 kts 345°
2026-05-04 13:35 44.94341 4.69357 36038 ft 471 kts 345°
2026-05-04 13:36 45.00779 4.67916 36039 ft 472 kts 345°
2026-05-04 13:36 45.07267 4.66459 36039 ft 473 kts 345°
2026-05-04 13:37 45.13771 4.64996 36037 ft 473 kts 345°
2026-05-04 13:37 45.20282 4.63528 36030 ft 473 kts 345°
2026-05-04 13:38 45.26784 4.62045 36026 ft 474 kts 345°
2026-05-04 13:38 45.33285 4.60557 36018 ft 473 kts 346°
2026-05-04 13:39 45.39803 4.59062 36019 ft 474 kts 346°
2026-05-04 13:39 45.46331 4.57562 36029 ft 476 kts 346°
2026-05-04 13:40 45.51769 4.56311 36030 ft 476 kts 346°
2026-05-04 13:40 45.58302 4.54805 36027 ft 476 kts 346°
2026-05-04 13:41 45.64837 4.53294 36020 ft 476 kts 346°
2026-05-04 13:41 45.71372 4.51778 36012 ft 476 kts 346°
2026-05-04 13:42 45.81171 4.49499 36010 ft 477 kts 346°
2026-05-04 13:42 45.87725 4.47971 36012 ft 478 kts 346°
2026-05-04 13:43 45.94292 4.46437 36003 ft 478 kts 346°
2026-05-04 13:43 46.00846 4.44904 35994 ft 477 kts 346°
2026-05-04 13:44 46.07361 4.43373 36001 ft 477 kts 346°
2026-05-04 13:44 46.13916 4.41830 35999 ft 477 kts 346°
2026-05-04 13:45 46.20475 4.40282 35994 ft 477 kts 346°
2026-05-04 13:45 46.27029 4.38732 35982 ft 478 kts 346°
2026-05-04 13:46 46.33477 4.36608 35987 ft 475 kts 342°
2026-05-04 13:46 46.39908 4.34365 35983 ft 475 kts 342°
2026-05-04 13:47 46.46292 4.32134 35982 ft 475 kts 342°
2026-05-04 13:47 46.52724 4.29872 35982 ft 475 kts 342°
2026-05-04 13:48 46.59153 4.27604 35978 ft 475 kts 342°
2026-05-04 13:48 46.65589 4.25328 35978 ft 476 kts 342°
2026-05-04 13:49 46.72026 4.23046 35985 ft 476 kts 342°
2026-05-04 13:49 46.78485 4.20750 35988 ft 477 kts 342°
2026-05-04 13:50 46.84933 4.18453 35982 ft 477 kts 342°
2026-05-04 13:50 46.91375 4.16152 35986 ft 477 kts 342°
2026-05-04 13:51 46.97821 4.13844 35989 ft 477 kts 342°
2026-05-04 13:51 47.04251 4.11535 35983 ft 478 kts 342°
2026-05-04 13:52 47.13517 4.06590 35974 ft 472 kts 334°
2026-05-04 13:53 47.19622 4.03009 35973 ft 472 kts 334°
2026-05-04 13:53 47.25720 3.99410 35973 ft 472 kts 334°
2026-05-04 13:54 47.34876 3.93971 35976 ft 472 kts 334°
2026-05-04 13:55 47.43989 3.88534 35973 ft 473 kts 334°
2026-05-04 13:55 47.53143 3.83052 35965 ft 473 kts 334°
2026-05-04 13:56 47.59234 3.79395 35967 ft 473 kts 334°
2026-05-04 13:57 47.68385 3.73885 35966 ft 474 kts 334°
2026-05-04 13:58 47.80612 3.66489 35970 ft 474 kts 334°
2026-05-04 13:58 47.89789 3.60913 35975 ft 474 kts 334°
2026-05-04 13:59 47.95867 3.57209 35974 ft 475 kts 334°
2026-05-04 14:00 48.05027 3.51591 35970 ft 474 kts 334°
2026-05-04 14:00 48.14185 3.45945 35973 ft 474 kts 334°
2026-05-04 14:01 48.20287 3.42172 35970 ft 474 kts 334°
2026-05-04 14:02 48.29443 3.36494 35968 ft 475 kts 334°
2026-05-04 14:02 48.35544 3.32698 35970 ft 474 kts 334°
2026-05-04 14:03 48.41638 3.28896 35967 ft 474 kts 334°
2026-05-04 14:03 48.47715 3.25031 35970 ft 474 kts 333°